GFSSE_500_spd_336.txt.gz
Wind_Speed
33 34 36 38 37 38 38 38 39 37 36 34 33 32 30 29 28 28 28 27 25 25 24 23 23 24 25 26 29 31 32 32 33 34 32 29 29 29 28 27 26 26 26
35 37 40 41 41 42 41 42 41 40 38 36 35 33 30 28 28 28 28 27 24 24 24 24 25 25 25 25 26 28 31 33 33 33 33 31 32 29 30 29 28 28 28
39 40 41 40 41 43 44 43 41 39 39 39 37 34 31 29 28 28 28 28 28 29 28 28 27 27 27 27 28 28 29 31 33 33 33 32 31 32 31 30 29 28 29
40 40 40 41 41 43 43 42 41 40 39 37 35 33 32 31 30 31 30 30 31 31 32 31 30 29 29 28 28 28 29 32 32 33 33 33 32 33 32 30 30 29 28
41 41 42 43 43 44 43 41 38 35 33 32 31 32 33 33 33 34 33 34 34 34 34 33 32 31 30 29 29 28 28 30 32 32 32 33 33 34 32 31 29 28 28
41 43 45 46 44 42 38 36 35 34 33 33 33 34 34 34 34 34 34 35 35 35 35 35 34 33 33 32 30 30 30 30 30 31 32 32 33 35 34 32 30 29 29
44 44 42 44 42 40 40 38 38 37 37 38 38 38 38 37 37 37 37 37 38 38 38 38 37 37 35 34 34 33 33 32 31 31 32 32 32 34 34 33 32 29 29
41 42 40 39 40 39 39 40 40 40 39 40 40 40 40 40 40 40 41 41 41 41 41 41 41 40 39 37 37 36 35 34 33 33 32 33 32 32 33 34 33 31 30
42 39 39 39 38 40 40 39 40 40 41 42 41 42 42 43 43 44 43 44 44 44 44 44 43 42 42 41 39 38 37 36 35 33 33 33 32 31 33 34 34 33 32
41 42 41 41 40 39 40 41 42 43 43 44 45 45 46 46 46 46 45 45 45 45 46 46 45 44 43 43 42 41 40 38 37 36 35 32 31 33 34 34 33 34 33
41 41 40 41 42 41 42 43 44 43 44 44 46 46 47 47 47 47 48 48 48 48 48 48 48 47 45 45 44 44 43 42 40 39 37 35 34 33 34 33 35 34 33
43 43 41 42 44 44 45 44 44 43 44 45 46 46 46 45 45 46 45 46 46 47 48 49 50 50 50 48 47 46 46 45 44 42 40 39 37 37 36 35 33 35 32
44 42 43 45 46 46 46 46 44 44 42 43 43 44 44 45 44 45 45 45 45 46 47 47 48 49 50 51 51 49 49 48 47 45 43 41 40 39 38 37 36 33 33
43 45 46 48 50 50 48 47 42 39 38 39 39 41 41 43 43 41 44 47 48 46 45 46 47 48 49 51 52 52 52 51 50 48 46 44 43 42 40 39 38 36 34
46 47 49 50 50 49 47 44 37 38 40 40 39 40 42 44 44 47 46 46 46 47 47 47 45 43 43 45 49 51 52 52 51 51 49 47 45 44 43 41 39 39 37
48 49 50 48 47 48 46 39 37 41 41 44 45 46 46 48 49 50 47 44 44 45 47 49 48 47 45 42 41 43 46 49 50 50 50 49 47 45 44 43 42 40 39
48 48 44 46 47 42 36 40 39 42 44 45 48 49 51 49 46 45 43 43 42 43 43 41 42 43 44 44 44 43 42 43 45 48 50 49 48 46 45 44 43 41 40
45 45 47 45 41 34 38 40 40 45 46 46 46 46 43 43 45 47 47 47 47 47 46 46 45 45 44 44 45 44 43 43 43 44 47 48 48 47 45 44 43 42 41
44 43 41 37 35 37 40 43 47 41 42 41 40 43 46 47 48 49 50 51 51 50 50 50 50 49 49 47 47 47 47 45 43 43 44 47 48 48 46 45 43 43 43
34 29 30 37 37 39 42 44 40 39 40 42 45 47 49 50 49 50 50 50 51 51 51 52 53 54 54 53 51 49 49 49 48 46 45 45 46 47 46 46 46 47 44
29 33 32 37 39 44 38 39 40 41 45 45 45 45 44 43 41 41 41 43 45 47 47 47 46 45 46 52 57 53 51 50 49 48 49 47 46 46 46 46 46 46 45
25 33 35 37 37 39 41 42 44 45 44 43 41 36 31 29 29 30 30 30 30 29 30 32 35 39 44 47 44 46 54 53 51 50 49 48 48 47 46 46 45 46 44
30 31 35 36 40 41 43 43 42 39 37 33 30 32 31 29 27 26 25 25 26 27 28 30 30 31 32 31 32 34 39 46 51 51 50 48 48 48 47 47 46 44 46
27 31 35 37 39 39 36 35 32 29 30 30 28 28 29 30 29 28 29 26 24 25 26 27 28 28 27 27 29 31 31 32 37 45 49 49 48 48 48 47 47 47 48
28 30 32 31 30 31 29 28 32 31 32 32 34 34 33 31 32 33 30 31 31 30 28 27 27 25 25 26 27 29 28 31 31 32 39 49 50 48 48 49 48 48 49
27 24 24 27 30 30 32 34 36 36 35 33 34 34 35 35 35 36 39 38 37 38 37 36 36 34 32 31 30 29 27 31 29 30 33 38 50 50 49 48 48 48 49

GFSSE_500_spd_339.txt.gz
Wind_Speed
34 36 37 37 38 39 40 41 42 41 42 40 38 37 34 32 31 31 31 30 29 28 27 25 24 24 24 24 26 27 28 29 31 32 32 32 31 31 29 27 27 26 25
36 36 37 38 40 42 41 40 40 40 39 38 36 35 36 35 33 31 29 28 28 27 26 25 24 24 24 25 25 24 25 28 31 32 32 33 31 32 32 30 29 29 27
37 38 38 38 38 38 39 39 40 40 39 39 38 38 36 35 33 31 30 29 28 27 27 27 27 26 26 27 26 27 28 28 29 31 32 32 31 33 33 32 31 29 29
34 35 35 36 37 39 40 41 42 41 39 37 36 37 36 35 33 32 31 30 30 30 31 31 30 30 29 28 28 29 30 30 30 30 30 31 32 34 34 33 32 30 29
34 36 37 39 40 42 43 42 41 40 36 34 33 33 33 33 33 32 34 34 33 34 34 34 34 33 32 30 29 29 30 31 31 30 30 31 31 35 35 34 32 31 31
36 38 40 42 43 42 43 45 41 39 38 38 37 36 35 35 35 35 35 36 36 36 37 36 37 36 35 33 32 31 30 31 30 30 30 32 28 36 35 35 33 32 31
39 41 42 42 42 44 42 41 40 41 39 40 40 40 38 38 38 38 38 39 39 39 40 39 39 37 37 36 35 35 34 33 32 32 32 32 29 34 33 34 34 32 31
41 41 42 43 43 41 42 42 42 41 41 41 40 39 38 38 39 39 40 40 41 41 42 42 42 41 40 39 39 38 37 36 35 34 33 33 32 32 33 34 35 34 33
43 43 44 40 40 42 43 41 41 41 41 41 41 40 39 39 39 40 41 41 42 43 43 44 44 43 43 43 42 41 40 40 38 37 37 33 32 32 34 35 35 35 34
45 43 42 41 41 41 42 41 41 41 40 40 40 40 40 40 41 41 42 43 44 45 45 45 45 45 45 45 45 44 44 43 41 41 39 35 35 33 35 36 36 36 35
45 44 43 42 41 40 42 43 42 42 41 42 42 44 44 45 45 45 45 45 46 46 46 47 47 48 47 47 47 47 46 44 44 43 41 39 38 36 36 36 35 35 35
45 43 44 43 42 40 43 44 45 44 44 46 47 47 49 48 48 49 48 48 47 48 48 49 49 49 50 50 50 49 48 47 46 45 42 42 40 38 38 37 36 36 35
43 41 41 42 43 43 47 49 49 49 50 51 50 49 47 47 46 47 47 45 46 46 46 47 48 49 50 51 51 51 51 51 49 48 45 45 43 41 41 40 37 36 35
41 40 42 44 45 46 48 50 51 51 52 50 45 44 45 44 44 45 46 44 44 44 41 41 47 49 47 48 51 50 51 51 52 51 49 47 45 44 44 42 40 38 37
41 44 45 47 47 47 45 48 50 52 49 42 38 41 42 42 43 43 42 42 43 44 47 49 45 45 45 45 45 47 50 51 52 52 52 51 48 46 45 44 42 41 39
44 46 47 47 46 44 49 49 52 49 43 42 43 42 45 44 43 44 46 47 48 46 47 45 44 44 46 48 48 47 46 47 50 53 53 52 51 49 47 46 45 43 41
46 46 46 46 47 49 46 49 48 42 42 43 44 47 49 47 48 48 47 46 44 43 43 44 43 43 41 42 45 48 48 45 43 44 51 53 52 50 49 48 47 45 42
48 46 44 45 46 45 48 45 40 43 43 45 51 48 46 45 44 45 47 47 47 48 48 48 47 45 44 45 44 44 45 47 46 43 44 49 51 51 51 49 48 47 44
46 45 45 45 46 41 39 42 42 45 48 49 45 46 45 46 47 49 50 51 52 53 53 53 52 52 50 48 47 46 46 44 45 44 44 44 46 48 50 49 49 47 47
37 37 38 38 39 40 44 40 47 47 44 45 46 47 47 48 49 49 50 51 52 53 53 53 53 53 53 54 52 50 47 47 46 45 44 43 44 45 47 50 49 48 47
24 30 36 40 38 40 42 43 42 48 48 48 48 48 48 46 44 42 38 37 38 37 37 37 39 43 48 49 49 53 53 51 48 47 47 46 43 44 46 47 47 49 47
29 37 32 35 38 40 42 47 47 48 47 45 45 44 40 35 34 36 37 38 37 36 35 34 30 29 30 37 42 46 45 45 51 50 48 46 46 44 44 45 47 48 48
27 29 30 35 37 42 44 46 45 41 43 43 40 39 41 42 41 40 38 35 35 34 32 31 33 33 31 31 29 29 35 43 45 45 50 48 47 47 46 44 45 48 49
27 31 35 37 39 43 43 42 42 41 42 43 46 46 44 44 42 40 40 42 39 37 35 35 35 34 33 31 30 29 30 31 39 41 43 50 48 48 47 46 45 46 47
28 31 34 38 40 40 40 40 44 46 49 49 49 48 47 46 46 44 44 43 43 42 41 42 40 39 36 32 34 30 28 31 31 32 39 44 49 49 47 47 46 45 46
29 32 33 36 38 41 44 45 47 47 47 47 47 48 49 49 50 50 51 50 51 51 48 47 46 42 40 37 36 32 31 31 29 32 32 37 47 50 49 47 46 46 46

GFSSE_500_spd_342.txt.gz
Wind_Speed
30 31 32 34 34 35 36 37 38 38 37 38 37 35 34 33 32 31 31 30 30 30 30 29 27 25 25 24 24 24 26 29 28 28 28 30 30 30 29 28 28 27 26
31 31 31 32 33 34 35 36 37 39 39 39 38 36 34 33 32 32 31 30 29 29 29 28 27 26 26 25 24 24 24 24 27 28 29 28 29 30 32 31 30 29 27
31 31 30 30 30 32 34 36 39 39 40 40 37 35 34 32 32 32 31 30 30 30 30 28 26 25 26 26 26 26 25 25 25 25 26 27 28 30 30 31 31 30 28
30 29 30 31 32 35 38 39 41 41 40 38 38 35 32 31 30 32 31 30 30 30 30 31 30 29 28 29 29 29 29 29 28 27 27 26 27 29 30 29 30 31 30
30 31 33 35 36 39 41 43 44 43 43 40 37 34 33 32 32 32 32 31 31 31 32 32 32 32 32 32 31 30 30 31 31 29 28 25 27 29 30 30 29 30 30
32 34 36 38 40 42 43 44 44 44 41 38 38 37 37 36 36 35 35 35 34 34 34 34 34 35 36 36 36 34 33 32 31 30 30 27 25 33 30 30 30 30 30
34 36 38 40 42 42 43 43 43 42 42 42 41 41 40 40 39 39 39 38 38 37 37 37 37 37 38 38 38 36 35 34 33 32 31 27 26 33 28 30 30 30 30
38 38 40 42 42 42 42 40 41 42 42 40 40 39 39 38 38 39 38 38 38 39 39 38 39 40 40 40 40 40 39 37 36 35 34 28 29 30 31 30 30 31 31
41 41 41 41 41 41 41 41 41 41 41 39 38 38 37 36 35 35 35 36 37 38 39 40 40 40 41 42 42 42 42 41 40 39 36 31 32 32 33 32 31 31 32
43 42 41 41 41 42 41 40 40 40 40 39 38 37 37 37 38 39 38 38 38 37 38 39 40 41 42 42 42 43 43 42 42 42 37 36 35 35 35 34 32 32 32
42 42 42 42 41 42 40 39 38 40 39 40 40 40 42 43 44 45 45 45 44 44 43 41 41 41 42 44 44 44 44 44 45 43 40 40 39 38 37 36 34 33 32
41 41 42 41 41 41 40 39 39 42 44 46 45 46 47 47 46 45 44 45 44 45 44 45 44 44 44 45 46 47 46 46 45 44 44 43 41 40 39 38 36 34 33
40 41 42 42 40 40 40 42 43 45 47 48 49 49 49 48 46 45 42 42 43 44 42 43 43 43 44 46 46 48 48 49 48 46 46 45 43 42 41 40 38 35 35
39 40 40 41 41 41 44 46 45 47 47 49 51 51 49 43 38 38 40 40 40 39 41 41 40 41 41 40 43 47 48 49 49 49 48 47 46 44 43 42 40 38 36
38 38 40 42 45 46 47 48 48 49 50 50 51 45 42 38 39 39 41 39 40 40 41 41 40 38 43 44 44 44 47 48 48 49 48 48 48 47 46 44 43 41 39
44 42 45 45 47 48 49 49 49 49 48 48 48 40 40 43 43 43 44 43 44 45 46 46 46 45 43 43 43 45 46 46 45 45 48 47 49 49 48 46 45 43 42
48 47 46 47 48 48 49 49 48 45 49 50 40 41 43 45 47 51 48 47 47 46 43 41 40 40 39 39 39 38 40 45 47 45 44 45 47 48 49 48 47 45 44
49 48 47 47 47 45 45 46 47 49 46 44 45 45 47 50 50 46 47 46 46 44 43 43 42 42 42 41 41 42 42 40 40 45 46 44 43 47 48 48 49 47 46
41 33 36 37 39 40 42 43 42 43 45 51 45 46 49 51 51 49 46 47 48 47 46 47 48 49 49 48 46 44 43 42 41 39 43 47 44 42 45 49 50 49 48
28 25 26 29 31 37 38 42 48 49 43 45 49 50 50 52 51 48 44 44 45 45 44 42 42 43 45 48 50 51 48 45 43 43 42 42 45 44 42 44 48 50 50
29 28 31 33 38 44 45 44 43 43 47 50 50 49 46 45 41 39 38 36 37 33 32 34 34 34 33 33 37 44 48 48 47 45 43 43 42 44 43 41 45 49 51
28 31 33 39 33 32 36 39 44 47 49 49 46 45 45 45 44 44 44 42 41 40 38 38 37 32 31 33 31 29 35 42 43 47 47 44 43 43 42 42 43 46 50
22 27 27 30 34 41 44 45 46 44 43 46 47 48 49 50 48 45 43 43 43 44 40 39 37 37 33 32 32 31 26 28 40 42 43 49 46 44 44 41 42 45 49
27 32 33 37 40 42 41 40 41 45 47 49 52 52 52 53 54 53 52 51 47 46 46 45 44 41 39 38 33 29 28 29 28 31 40 41 48 46 45 44 42 44 48
30 32 32 32 34 37 41 45 47 48 49 49 50 51 52 52 52 53 52 53 52 51 50 51 49 46 44 41 40 35 30 30 30 27 26 40 39 49 47 45 44 43 46
28 30 32 35 40 43 46 48 49 50 51 52 53 54 55 55 56 56 55 56 55 53 51 51 51 50 48 46 44 41 35 31 32 28 28 28 38 41 49 46 45 45 44

GFSSE_500_spd_345.txt.gz
Wind_Speed
29 32 29 27 29 29 29 30 31 32 33 35 37 36 36 35 34 32 30 27 27 27 27 27 27 28 26 25 25 26 26 27 26 25 26 26 25 26 26 26 26 25 24
33 29 28 28 28 29 29 30 32 33 36 38 39 38 37 35 33 30 28 27 27 26 26 27 27 27 26 26 26 26 26 26 26 25 26 25 25 24 25 26 26 25 25
34 31 28 27 27 27 29 31 34 36 38 40 40 39 38 35 34 32 27 26 26 28 28 27 27 27 25 25 25 25 25 26 26 25 24 23 23 22 24 25 26 25 26
30 30 29 28 28 30 32 35 38 40 41 42 42 40 37 34 32 31 30 29 28 28 28 28 28 28 28 28 28 27 27 27 27 25 24 23 24 24 24 26 26 26 25
29 30 30 31 32 34 36 38 39 41 43 44 44 42 37 33 31 31 31 30 30 31 30 30 30 29 30 30 30 30 31 30 28 27 25 24 30 28 27 25 25 25 25
31 32 33 34 35 36 38 39 40 42 42 41 41 40 38 37 34 34 34 34 33 33 34 34 33 33 32 32 32 33 33 33 31 29 27 25 29 28 28 27 26 25 25
33 34 36 36 37 38 39 39 40 40 39 39 39 39 38 37 36 35 36 35 35 35 36 37 37 37 36 36 35 35 35 35 34 32 28 25 28 30 28 27 28 27 26
36 37 37 37 38 40 40 39 38 39 39 39 39 38 37 36 35 34 33 34 34 34 34 35 37 38 39 39 39 38 37 36 36 33 30 27 30 32 28 28 29 29 28
39 39 39 39 39 39 40 38 38 38 39 39 38 37 35 33 32 32 32 32 31 33 33 34 36 37 37 39 40 40 40 39 39 35 33 32 32 33 32 30 30 29 28
39 41 41 41 39 39 38 38 38 38 39 38 37 37 35 33 34 35 37 37 37 37 37 36 35 35 36 38 40 40 40 41 41 39 38 35 35 35 34 32 30 30 29
38 40 41 40 39 38 39 39 39 39 37 36 38 39 39 38 39 41 40 40 40 40 40 40 40 40 40 39 39 39 41 42 41 41 40 39 37 37 36 35 33 32 31
37 38 40 40 40 40 40 40 40 39 38 39 41 41 42 44 43 43 42 41 41 40 40 41 41 41 42 43 43 42 42 42 41 41 41 41 39 39 38 37 35 34 33
36 37 38 40 41 41 41 41 41 41 42 42 43 43 44 45 45 44 43 39 36 36 36 38 40 39 41 43 44 45 44 44 42 42 42 43 42 41 41 40 38 36 35
33 34 35 38 40 40 41 44 44 43 43 45 45 45 46 45 41 40 37 33 34 34 34 37 38 37 37 37 38 40 44 44 45 44 44 45 44 42 42 42 40 38 37
35 35 33 37 43 43 45 46 45 46 46 47 47 47 43 41 43 36 36 38 37 37 36 37 37 36 38 40 39 39 41 41 42 45 44 44 45 45 44 43 42 40 39
39 41 40 36 46 46 47 47 47 47 47 46 45 41 47 45 44 39 38 38 39 41 41 40 40 41 41 41 43 41 39 43 42 41 42 45 45 45 46 45 44 42 40
44 46 40 40 45 45 44 45 44 43 41 41 46 43 47 45 43 45 42 44 47 47 46 44 45 44 43 42 41 41 42 44 44 44 45 44 46 45 45 46 46 45 43
42 40 28 27 29 31 32 33 34 35 37 39 40 40 41 45 49 44 47 48 51 51 51 49 47 45 44 41 40 39 39 41 42 40 44 46 43 44 44 46 47 47 45
33 29 25 26 28 28 30 29 34 36 41 44 47 46 46 44 47 51 49 46 45 47 50 51 50 47 45 45 44 43 42 40 40 41 40 42 46 45 43 43 45 47 48
34 29 27 26 27 32 34 38 39 38 37 39 41 43 49 53 55 50 39 36 35 35 36 38 37 38 40 40 42 45 48 47 45 42 42 43 41 45 44 42 44 47 48
26 26 27 27 32 35 38 37 34 35 38 42 48 50 50 46 41 42 42 42 39 38 39 38 37 31 29 30 29 29 29 37 48 48 46 43 42 41 46 44 42 43 49
29 29 29 32 35 36 35 36 40 44 49 46 43 44 44 46 46 47 45 43 43 41 40 40 36 35 34 32 31 31 32 28 29 42 49 46 44 42 41 44 45 42 46
32 35 31 34 38 40 40 40 39 39 39 42 44 47 48 50 51 52 52 49 47 46 43 43 41 36 35 33 31 32 31 30 29 28 42 48 47 43 42 42 44 44 42
32 35 34 33 32 33 35 38 41 44 46 47 49 50 52 53 54 54 54 53 49 46 44 44 44 43 40 38 36 35 34 32 30 26 26 41 46 47 43 43 43 44 43
32 27 26 28 31 36 39 43 46 48 50 52 52 54 55 55 55 55 56 56 56 55 51 48 47 49 48 45 43 41 37 34 32 26 25 28 42 47 50 44 44 44 44
25 25 28 32 37 40 44 47 51 53 53 50 48 49 50 50 52 55 56 59 59 58 57 55 51 52 51 50 48 46 42 38 35 30 26 29 31 43 49 50 45 45 44